Home   Weather   Athens   Past weeks

Flag for Greece Past Weather in Athens, Greece — Yesterday and Last 2 Weeks

Now
54 °F

Sunny.


Feels Like: 54 °F
Forecast: 50 / 69 °F
Wind: No wind

Location: Elefsis Airport

Current Time: Apr 23, 2017 at 9:06:37 am

Latest Report: Apr 23, 2017 at 8:20 am


Visibility: 10 mi

Pressure: 30.01 "Hg

Humidity: 47%

Dew Point: 34 °F

Location of AthensLocation

Past Weather in Athens — Graph

°F

Athens Temperature Yesterday

Maximum temperature yesterday: 63 °F (at 2:20 pm)
Minimum temperature yesterday: 48 °F (at 10:50 pm)
Average temperature yesterday: 55 °F

High & Low Weather Summary for the Past Weeks

 TemperatureHumidityPressure
High82 °F (Apr 12, 1:20 pm)94% (Apr 18, 12:50 am)30.24 "Hg (Apr 18, 12:50 am)
Low43 °F (Apr 23, 3:50 am)19% (Apr 12, 1:20 pm)29.74 "Hg (Apr 13, 5:20 pm)
Average60 °F54%29.97 "Hg
* Reported Apr 8 7:20 am — Apr 23 7:50 am, Athens, Weather by CustomWeather, © 2017

Note: Actual official high and low records may vary slightly from our data, if they occured in-between our weather recording intervals... More about our weather records

Advertising

Athens Weather History for the Previous 24 Hours

Scroll right to see more
 ConditionsComfort  
Time TempWeatherWind HumidityBarometerVisibility
7:50 am
Sun, Apr 23
50 °FSunny.No wind58%30.01 "Hg10 mi
7:20 am46 °FSunny.No wind66%30.01 "Hg10 mi
6:20 am43 °FPassing clouds.6 mph71%30.01 "HgN/A
5:50 am48 °FPassing clouds.5 mph58%29.98 "HgN/A
5:20 am45 °FPassing clouds.5 mph66%29.98 "HgN/A
4:50 am45 °FPassing clouds.6 mph71%29.98 "HgN/A
4:20 am43 °FPassing clouds.3 mph76%29.98 "HgN/A
3:50 am43 °FPassing clouds.No wind81%29.98 "HgN/A
3:20 am45 °FPassing clouds.No wind71%29.98 "HgN/A
2:20 am45 °FPassing clouds.3 mph76%29.98 "HgN/A
1:50 am45 °FPassing clouds.3 mph76%30.01 "HgN/A
1:20 am45 °FPassing clouds.3 mph76%30.01 "HgN/A
12:50 am46 °FPassing clouds.2 mph66%30.01 "HgN/A
12:20 am48 °FPassing clouds.3 mph66%30.01 "HgN/A
11:50 pm
Sat, Apr 22
48 °FPassing clouds.5 mph66%30.01 "HgN/A
11:20 pm48 °FPassing clouds.3 mph71%30.01 "HgN/A
10:50 pm48 °FPassing clouds.3 mph71%30.01 "HgN/A
10:20 pm50 °FPassing clouds.No wind71%30.01 "HgN/A
9:20 pm52 °FPassing clouds.3 mph67%30.01 "HgN/A
8:50 pm52 °FPassing clouds.6 mph67%30.01 "HgN/A
8:20 pm54 °FPassing clouds.6 mph58%29.98 "HgN/A
7:50 pm55 °FPartly sunny.7 mph59%29.98 "HgN/A
7:20 pm57 °FPartly sunny.6 mph36%29.98 "HgN/A
6:50 pm59 °FPartly sunny.6 mph34%29.98 "HgN/A
6:20 pm57 °FPartly sunny.6 mph36%29.98 "HgN/A
5:50 pm59 °FPartly sunny.8 mph36%29.98 "HgN/A
5:20 pm59 °FPartly sunny.9 mph36%29.98 "HgN/A
4:50 pm61 °FScattered clouds.9 mph34%29.98 "HgN/A
4:20 pm61 °FScattered clouds.12 mph34%29.98 "HgN/A
3:50 pm63 °FScattered clouds.10 mph32%29.98 "HgN/A
2:50 pm61 °FScattered clouds.9 mph31%30.01 "HgN/A
2:20 pm63 °FScattered clouds.10 mph30%30.04 "HgN/A
1:50 pm61 °FScattered clouds.9 mph31%30.04 "HgN/A
1:20 pm61 °FScattered clouds.12 mph31%30.04 "HgN/A
12:50 pm61 °FScattered clouds.10 mph29%30.07 "HgN/A
12:20 pm59 °FScattered clouds.10 mph31%30.09 "HgN/A
11:50 am59 °FBroken clouds.10 mph31%30.09 "HgN/A
11:20 am57 °FPartly sunny.10 mph36%30.09 "HgN/A
10:50 am57 °FScattered clouds.12 mph39%30.09 "HgN/A
10:20 am55 °FScattered clouds.12 mph41%30.12 "HgN/A
9:50 am54 °FScattered clouds.10 mph44%30.09 "HgN/A
9:20 am54 °FPartly sunny.9 mph44%30.12 "HgN/A
Weather by CustomWeather, © 2017

See weather overviewHow to use our weather pages